Cloud_Cover
87 40 5 2 3 52 100 100 15 5 37 0 0 0 5 2 0 0 5 5 6 57 17 100 100 100 100 100 100 100 100 99 100 100 77 75 5 0 0 1 53 100 94 48
13 43 5 2 4 83 100 80 6 86 0 4 1 0 0 0 1 4 54 100 100 100 100 92 100 93 98 100 100 100 100 100 95 100 100 100 60 8 4 8 5 100 100 54
100 12 4 0 4 68 87 5 42 1 0 0 2 3 4 3 5 42 100 100 100 100 99 60 49 3 19 100 100 100 100 100 100 95 53 75 86 3 0 5 2 100 100 100
58 5 0 0 6 22 5 6 1 1 1 5 1 4 0 10 18 18 100 100 100 100 100 100 80 53 55 100 100 100 100 100 100 100 28 13 12 0 0 0 0 80 100 100
6 5 0 2 5 3 5 4 2 1 0 1 1 4 41 100 42 99 100 100 100 100 100 100 100 100 100 100 100 100 100 100 100 100 1 11 5 4 0 61 95 10 100 100
5 1 1 4 3 4 5 5 4 5 0 0 0 7 100 100 100 79 100 100 100 100 100 100 99 99 100 100 100 100 100 100 100 100 100 43 20 100 78 100 84 2 77 100
5 4 3 5 1 1 4 5 5 4 0 0 0 4 88 100 100 100 100 100 100 100 100 84 66 84 100 100 100 100 100 100 100 100 100 100 100 100 100 100 100 100 100 100
5 5 5 5 5 4 5 5 5 5 0 0 0 5 77 42 35 95 100 100 100 100 100 91 73 100 100 100 100 100 100 100 100 100 100 100 100 100 100 100 100 100 100 100
5 5 5 5 5 5 5 5 18 8 10 0 27 30 33 90 56 98 89 100 100 100 100 100 100 100 100 100 100 100 100 100 100 100 100 100 100 100 100 100 100 100 100 100
5 5 5 5 5 5 5 5 63 14 5 0 0 4 85 100 99 100 91 46 88 100 100 100 100 100 100 100 100 100 100 100 100 100 100 100 100 100 100 100 100 100 100 100
5 5 5 28 8 2 4 5 48 33 5 0 0 1 6 5 5 88 96 61 19 99 95 100 100 100 100 100 100 100 100 100 100 100 100 97 100 100 100 100 100 100 100 100
5 5 5 5 5 2 4 5 6 42 26 0 0 0 0 1 5 76 70 97 96 100 100 97 100 100 100 100 100 100 100 100 100 100 100 100 100 100 100 100 100 100 100 100
5 5 5 5 44 4 4 7 12 7 4 4 0 0 0 0 1 57 74 50 60 47 100 100 100 100 100 100 100 100 100 100 100 100 100 100 100 100 100 100 100 100 100 100
5 5 5 5 5 5 4 14 6 6 5 8 0 3 0 0 4 5 5 12 22 60 96 99 98 100 100 100 100 100 100 100 100 100 100 100 100 100 100 100 100 100 100 100
9 56 5 5 5 5 9 51 89 19 13 4 0 5 4 0 0 5 5 5 5 22 79 98 100 100 100 100 100 100 100 100 100 100 100 100 100 100 100 100 100 100 100 100
63 20 23 5 11 5 4 96 9 23 5 6 5 5 4 0 0 0 4 3 5 6 90 100 100 100 100 100 100 100 100 100 100 100 100 100 100 100 100 100 100 100 100 100
21 55 21 5 5 5 37 5 4 5 5 7 5 5 5 5 0 0 0 0 5 5 75 100 99 100 100 100 100 100 100 100 100 100 100 96 99 100 100 100 100 100 100 100
86 44 6 5 5 7 48 59 7 5 5 5 5 5 5 5 0 0 0 4 4 5 80 90 99 94 100 100 100 100 100 100 100 100 100 100 100 100 100 100 100 100 100 100
100 94 76 8 16 80 72 97 5 8 9 4 3 5 5 5 2 1 0 0 3 0 20 5 30 11 64 100 100 100 100 100 100 100 100 100 100 100 100 81 37 83 100 99
100 78 98 100 73 7 16 50 82 90 38 5 0 5 5 5 5 5 0 0 3 2 2 3 25 5 5 4 27 100 74 86 100 100 100 100 100 100 100 100 100 100 100 100
95 100 66 54 80 28 5 54 17 24 5 5 1 5 5 5 5 5 1 2 0 0 0 3 2 5 5 1 0 1 32 31 10 47 99 100 100 100 100 100 100 100 100 100
97 96 75 87 37 6 9 24 5 5 5 5 3 4 5 5 6 46 5 0 0 1 1 5 0 0 0 0 0 0 0 0 3 8 32 45 98 100 100 100 100 100 100 100
100 100 100 100 100 28 50 14 6 6 21 5 5 5 5 5 5 6 87 4 1 0 4 1 1 1 0 0 0 0 0 0 0 0 1 6 26 54 65 100 100 100 100 100
96 100 100 100 97 16 68 6 38 5 62 54 5 5 51 5 51 8 51 80 2 3 4 0 0 0 0 0 0 0 0 0 0 0 0 0 0 0 2 5 22 46 73 95
100 100 100 100 51 41 49 26 100 6 65 64 5 5 73 81 59 95 5 100 12 5 1 0 0 0 0 0 0 0 0 0 0 0 0 0 0 0 0 0 0 6 7 5
90 97 100 89 86 73 73 45 100 37 22 37 8 40 61 97 47 80 5 66 96 21 5 3 2 0 0 0 0 0 0 0 0 3 4 1 0 0 0 0 1 43 17 60
84 100 99 91 100 50 99 21 95 47 28 71 11 47 99 100 97 45 18 25 71 95 24 5 5 1 0 0 0 0 0 3 5 5 5 5 1 0 0 2 33 4 5 10